TIANGONG 1 (37820 NORAD) Tracking and Keplerian Element Data.

This shows tracking and keplerian element data for the satellite.

Feedback or suggestion? Click here.

Epoch Orbit37221
Epoch Day80.84181713
Epoch Year2018
Argument of Perigee300.2141
Mean Anonmoly253.8501
Mean Motion16.18718761
Decay Rate0.0041415
L11 37820U 11053A 18080.84181713 .00414150 86967-5 22095-3 0 9997
L22 37820 42.7478 267.3044 0016105 300.2141 253.8501 16.18718761372219

Live tracking and technical data element details for TIANGONG 1 (NORAD 37820). TIANGONG 1 can be tracked NOW for your location showing map with azimuth and elevation plus other details from your city location.

Tracking and technical details about the satellite: track the satellite on the map from your city or location and see movement details for azimuth, elevation, latitude, longitude, range, height, and movement on the map or in text.

Es'hailsat 2 (coming in 2018)

IsCatalogInMostPopularTable: catalog: 37820, numindb: 315
Update: records affected: 1

GetName: 37820 TIANGONG 1

Hit Count: updated at: Thu, 22 Mar 2018 13:43:08 GMT